Tomorrow-S7

operational
NORAD ID: 63631 Int'l Des: 2025-081 Owner: TOMIO Country: US
LEOCIRCULAR

Über Tomorrow-S7

Beschreibung wird geladen...

Live-Position

3D-Globus wird geladen...

Nächste Überflüge

Höhenverlauf

Altitude vs Time

uPlot chart will show altitude changes over time

Zweizeiliger Elementsatz

1 63631U 25081B 26063.18521697 .00002764 00000-0 24215-3 0 9997
2 63631 45.3915 160.9121 0000575 31.0741 329.0171 14.99174451 47415
Epoch: 4. März 2026 • Age: 11 hours

Aktueller Status

Höhe 571.9 km
Geschwindigkeit 7.58 km/s
Subsatellitenpunkt 38.91°N, 45.71°W
Startdatum 22. Apr. 2025
Alter 0.8 years
Typ other

Technische Details

Klassifizierung Payload
Masse 12.00 kg
Trockenmasse 12.00 kg
Gesamtmasse 12.00 kg
Länge 0.30 m
Durchmesser 0.20 m
Spannweite 1.20 m
Form Box+2 pan
Hersteller BLCAN
Bus-Typ Cubesat 6U
Phasenstatus In Orbit
Besitzer/Staat TOMIO/US

Große Konstellationen

Loading constellations...